Location: La Sioule Rivi�re
(46.3664°N, 3.3197°E)
Time: 13:06:08
(UTC+00:00)

CZ-2C R/B - Pass Details

Date: 29 October 2020
Orbit: 703 x 909 km, 98.1° (Epoch: 23 November)

Event Time Altitude Azimuth Distance (km) Brightness Sun altitude
Rises 17:35:39 0° 141° (SE) 3,520 6.1 -10.8°
Reaches altitude 10° 17:38:13 10° 134° (SE) 2,572 5.4 -11.3°
Maximum altitude 17:43:30 39° 67° (ENE) 1,298 3.7 -12.2°
Drops below altitude 10° 17:48:38 10° 1° (N) 2,500 5.6 -13.0°
Sets 17:51:06 0° 354° (N) 3,410 6.4 -13.5°
